Weather History for Maykop, Russia

Change the Weather History Date:

Monday, January 21, 2013

  Actual Average Record
Temperature  
Mean Temperature 47 °F -  
Max Temperature 55 °F - - ()
Min Temperature 39 °F - - ()
Degree Days  
Heating Degree Days 18    
Moisture  
Dew Point 37 °F    
Average Humidity 67    
Maximum Humidity 87    
Minimum Humidity 51    
Precipitation  
Precipitation 0.00 in - - ()
Sea Level Pressure  
Sea Level Pressure 29.90 in    
Wind  
Wind Speed 8 mph ()    
Max Wind Speed 20 mph    
Max Gust Speed 31 mph    
Visibility 6.2 miles    
Events      
T = Trace of Precipitation, MM = Missing Value Source: Averaged Metar Reports

Daily Weather History Graph

Daily Weather History Graph

Search for Another Location

Airport:

Trip Planner

Search our weather history database for the weather conditions in past years. The results will help you decide how hot, cold, wet, or windy it might be!

Date:

Astronomy

Jan. 21, 2013 Rise Set
Actual Time 8:49 AM MSK 6:13 PM MSK
Civil Twilight 8:17 AM MSK 6:45 PM MSK
Nautical Twilight 7:41 AM MSK 7:20 PM MSK
Astronomical Twilight 7:06 AM MSK 7:55 PM MSK
Moon 1:38 PM MSK (1/21) 3:57 AM MSK (1/21)
Length of Visible Light 10h 28m
Length of Day
9h 24m
Waxing Gibbous, 71% of the Moon is Illuminated
Jan 21
Waxing Gibbous
Jan 27
Full
Feb 3
Last Quarter
Feb 10
New
Feb 18
First Quarter

Hourly Weather History & Observations

Time (MSK) Temp. Windchill Dew Point Humidity Pressure Visibility Wind Dir Wind Speed Gust Speed Precip Events Conditions
12:00 AM 42.8 °F 36.7 °F 33.8 °F 70% 29.86 in 6.2 mi SW 11.2 mph 17.9 mph N/A   Overcast
1:00 AM 42.8 °F 36.7 °F 35.6 °F 76% 29.89 in 6.2 mi South 11.2 mph 17.9 mph N/A   Mostly Cloudy
2:00 AM 42.8 °F 36.7 °F 35.6 °F 76% 29.89 in - SW 11.2 mph 17.9 mph N/A   Clear
3:00 AM 41.0 °F 34.4 °F 35.6 °F 81% 29.89 in - SW 11.2 mph 17.9 mph N/A   Clear
4:00 AM 41.0 °F 35.4 °F 35.6 °F 81% 29.89 in - SW 8.9 mph - N/A   Clear
5:00 AM 41.0 °F 38.1 °F 35.6 °F 81% 29.89 in - WSW 4.5 mph - N/A   Clear
6:00 AM 39.2 °F 36.0 °F 35.6 °F 87% 29.89 in - WSW 4.5 mph - N/A   Clear
7:00 AM 42.8 °F 40.2 °F 35.6 °F 76% 29.89 in 6.2 mi West 4.5 mph - N/A   Mostly Cloudy
8:00 AM 42.8 °F 40.2 °F 35.6 °F 76% 29.89 in 6.2 mi WSW 4.5 mph - N/A   Mostly Cloudy
9:00 AM 42.8 °F 38.7 °F 35.6 °F 76% 29.89 in 6.2 mi WSW 6.7 mph - N/A   Mostly Cloudy
10:00 AM 48.2 °F - 37.4 °F 66% 29.92 in 6.2 mi WSW 6.7 mph - N/A   Mostly Cloudy
11:00 AM 50.0 °F - 37.4 °F 62% 29.92 in 6.2 mi SW 8.9 mph - N/A   Mostly Cloudy
12:00 PM 51.8 °F - 37.4 °F 58% 29.92 in 6.2 mi SW 13.4 mph 20.1 mph N/A   Mostly Cloudy
1:00 PM 53.6 °F - 35.6 °F 51% 29.92 in 6.2 mi SW 15.7 mph 26.8 mph N/A   Overcast
2:00 PM 53.6 °F - 35.6 °F 51% 29.92 in 6.2 mi WSW 11.2 mph 20.1 mph N/A   Overcast
3:00 PM 55.4 °F - 37.4 °F 51% 29.92 in - SW 13.4 mph 24.6 mph N/A   Clear
4:00 PM 55.4 °F - 37.4 °F 51% 29.92 in - SW 13.4 mph 20.1 mph N/A   Clear
5:00 PM 55.4 °F - 37.4 °F 51% 29.92 in - WSW 20.1 mph 31.3 mph N/A   Clear
6:00 PM 55.4 °F - 39.2 °F 54% 29.92 in - SW 11.2 mph 22.4 mph N/A   Clear
7:00 PM 53.6 °F - 39.2 °F 58% 29.89 in - SW 11.2 mph 17.9 mph N/A   Clear
8:00 PM 51.8 °F - 41.0 °F 67% 29.89 in - WSW 6.7 mph - N/A   Clear
9:00 PM 51.8 °F - 41.0 °F 67% 29.92 in - WSW 2.2 mph - N/A   Clear
10:00 PM 51.8 °F - 42.8 °F 71% 29.92 in - SW 4.5 mph - N/A   Clear
11:00 PM 51.8 °F - 42.8 °F 71% 29.92 in - SW 6.7 mph - N/A   Clear